Orbital Elements at Epoch 2459000.5 (2020-May-31.0) TDB
Reference: JPL 15 (heliocentric ecliptic J2000)
Element | Value | Uncertainty (1-sigma) | Units |
e | .039322361437716 | 4.6889e-08 | |
a | 2.941393989345332 | 3.2625e-08 | au |
q | 2.82573143176557 | 1.4156e-07 | au |
i | 7.030870382073107 | 5.1674e-06 | deg |
node | 331.8679016872644 | 4.5871e-05 | deg |
peri | 21.26706479905127 | 8.6655e-05 | deg |
M | 94.18887466235135 | 7.2239e-05 | deg |
tp | 2458518.413094652998 (2019-Feb-03.91309465) | 0.00037151 | TDB |
period | 1842.587954756528 5.04 | 3.0656e-05 8.393e-08 | d yr |
n | .1953773761902015 | 3.2506e-09 | deg/d |
Q | 3.057056546925095 | 3.3908e-08 | au |
|
| | Orbit Determination Parameters
Additional Information
|